Bloomington, IN

5:48 AM EST on December 06, 2019 (GMT -0500)
Monroe County

Weather History for KBMG - September, 2019

Change the Weather History Date:

Thursday, September 19, 2019

  Actual Average Record
Temperature  
Mean Temperature 73 °F 64 °F  
Max Temperature 89 °F 77 °F 92 °F (2018)
Min Temperature 57 °F 52 °F 39 °F (2012)
Degree Days  
Heating Degree Days 0 3  
Month to date heating degree days 0 24  
Since 1 July heating degree days 0 31  
Cooling Degree Days 8 2  
Month to date cooling degree days 148 78  
Year to date cooling degree days 1120 895  
Growing Degree Days 23 (Base 50)    
Moisture  
Dew Point 60 °F    
Average Humidity 71    
Maximum Humidity 93    
Minimum Humidity 44    
Precipitation  
Precipitation 0.00 in 0.10 in 1.60 in (2005)
Month to date precipitation 0.87 2.06  
Year to date precipitation 37.09 35.25  
Sea Level Pressure  
Sea Level Pressure 30.06 in    
Wind  
Wind Speed 1 mph ()    
Max Wind Speed 8 mph    
Max Gust Speed 13 mph    
Visibility 10.0 miles    
Events      
T = Trace of Precipitation, MM = Missing Value Source: Averaged Metar Reports

Daily Weather History Graph

Daily Weather History Graph

Search for Another Location

Airport or City:

Astronomy

Sep. 19, 2019 Rise Set
Actual Time 7:31 AM EDT 7:48 PM EDT
Civil Twilight 7:04 AM EDT 8:15 PM EDT
Nautical Twilight 6:33 AM EDT 8:46 PM EDT
Astronomical Twilight 6:01 AM EDT 9:18 PM EDT
Moon 10:59 PM EDT (9/19) 12:32 PM EDT (9/19)
Length of Visible Light 13h 10m
Length of Day
12h 17m
Waning Gibbous, 74% of the Moon is Illuminated
Sep 19
Waning Gibbous
Sep 21
Last Quarter
Sep 28
New
Oct 5
First Quarter
Oct 13
Full

Hourly Weather History & Observations

Time (EDT) Temp. Heat Index Dew Point Humidity Pressure Visibility Wind Dir Wind Speed Gust Speed Precip Events Conditions
12:53 AM 63.0 °F - 59.0 °F 87% 30.05 in 10.0 mi Calm Calm - N/A   Clear
1:53 AM 61.0 °F - 57.9 °F 90% 30.06 in 10.0 mi Calm Calm - N/A   Clear
2:53 AM 61.0 °F - 57.0 °F 87% 30.06 in 10.0 mi Calm Calm - N/A   Clear
3:53 AM 60.1 °F - 57.0 °F 90% 30.06 in 10.0 mi Calm Calm - N/A   Clear
4:53 AM 60.1 °F - 55.9 °F 86% 30.05 in 10.0 mi Calm Calm - N/A   Clear
5:53 AM 59.0 °F - 55.0 °F 87% 30.05 in 10.0 mi Calm Calm - N/A   Clear
6:53 AM 57.9 °F - 54.0 °F 87% 30.06 in 10.0 mi SSE 3.5 mph - N/A   Clear
7:53 AM 60.1 °F - 55.0 °F 83% 30.06 in 10.0 mi Calm Calm - N/A   Clear
8:53 AM 66.0 °F - 55.9 °F 70% 30.07 in 10.0 mi SE 3.5 mph - N/A   Clear
9:53 AM 71.1 °F - 57.0 °F 61% 30.09 in 10.0 mi SE 4.6 mph - N/A   Clear
10:53 AM 75.0 °F - 60.1 °F 60% 30.10 in 10.0 mi SE 3.5 mph - N/A   Clear
11:53 AM 79.0 °F - 62.1 °F 56% 30.09 in 10.0 mi Variable 3.5 mph - N/A   Clear
12:53 PM 82.9 °F 84.4 °F 64.0 °F 53% 30.09 in 10.0 mi Variable 3.5 mph - N/A   Clear
1:53 PM 84.9 °F 86.1 °F 64.0 °F 49% 30.08 in 10.0 mi Variable 4.6 mph - N/A   Clear
2:53 PM 86.0 °F 86.3 °F 62.1 °F 44% 30.06 in 10.0 mi SSE 4.6 mph - N/A   Partly Cloudy
3:53 PM 84.9 °F 85.4 °F 62.1 °F 46% 30.05 in 10.0 mi Variable 3.5 mph - N/A   Mostly Cloudy
4:53 PM 86.0 °F 86.8 °F 63.0 °F 46% 30.04 in 10.0 mi Variable 5.8 mph - N/A   Clear
5:53 PM 84.9 °F 85.4 °F 62.1 °F 46% 30.04 in 10.0 mi Variable 4.6 mph - N/A   Clear
6:53 PM 84.0 °F 85.4 °F 64.0 °F 51% 30.04 in 10.0 mi Calm Calm - N/A   Clear
7:53 PM 73.0 °F - 66.9 °F 81% 30.04 in 10.0 mi Calm Calm - N/A   Partly Cloudy
8:53 PM 69.1 °F - 64.9 °F 87% 30.06 in 10.0 mi Calm Calm - N/A   Clear
9:53 PM 66.9 °F - 64.0 °F 90% 30.06 in 10.0 mi Calm Calm - N/A   Clear
10:53 PM 66.9 °F - 64.0 °F 90% 30.07 in 10.0 mi Calm Calm - N/A   Partly Cloudy
11:53 PM 66.0 °F - 62.1 °F 87% 30.07 in 9.0 mi Calm Calm - N/A   Clear